www.pogodaiklimat.ru

Погода и климат >> Архив погоды >> Индия >> Телингана >> Хайдарабад


ПОГОДА в Хайдарабаде

  • Прогноз погоды в Хайдарабаде
  • Монитор погоды в Хайдарабаде

АРХИВ ПОГОДЫ в Хайдарабаде

Время (UTC), дата Ветер
(напр.,м/с)
 
Видим.   Явления Облачность Т
(С)
Тd
(С)
f
(%)
Тe
(С)
Тes
(С)
Комфортность P
(гПа)
Po
(гПа)
Тmin
(С)
Tmax
(С)
R
(мм)
R24
(мм)
S
(см)
21 18.08 штиль 0 4000 м мгла 10/8 600 м
[Sc As op]
+25.4 +22.5 84 +33 +33 очень
душно
1006.8 947.0 0.0
00 19.08 З 2 4000 м пыльные вихри {дождь} 10/6 600 м
[Sc As op]
+24.2 +22.4 90 +32 +32 очень
душно
1006.5 946.5 3
03 19.08 З 3 4000 м мгла 9/5 450 м
[Sc Ac trans]
+25.4 +22.5 84 +33 +35 очень
душно
1008.1 948.1 +23.7 +29.4 3
06 19.08 З 2 10 км мгла 6/6 600 м
[Cu Sc]
+29.4 +24.1 73 +41 +49 опасность
перегрева
1008.0 948.9
09 19.08 СЗ 2 4000 м мгла 6/6 600 м
[Cu Sc]
+33.4 +22.7 54 +43 +49 опасность
перегрева
1004.1 945.9
12 19.08 ЮЗ 2 4000 м мгла 9/6 600 м
[Cu Sc Ac trans]
+28.6 +22.6 70 +38 +38 очень
душно
1004.5 945.3 +32.9
15 19.08 штиль 0 4000 м мгла 9/5 600 м
[Sc Ac trans Ci fib]
+27.0 +23.0 79 +36 +36 очень
душно
1006.9 947.1
18 19.08 штиль 0 4000 м мгла 9/5 600 м
[Sc Ac trans Ci fib]
+26.2 +23.6 86 +36 +36 очень
душно
1007.4 947.6
21 19.08 штиль 0 4000 м мгла 9/4 600 м
[Sc Ac trans Ci fib]
+26.0 +23.7 87 +35 +35 очень
душно
1006.3 946.5
00 20.08 штиль 0 4000 м мгла 8/3 600 м
[Sc Ac trans Ci fib]
+25.6 +23.0 86 +34 +34 очень
душно
1006.2 946.4
03 20.08 З 5 10 км мгла 8/4 600 м
[Sc Ci fib]
+27.6 +23.6 79 +38 +40 очень
душно
1007.4 947.9 +25.2 +32.9
06 20.08 З 3 10 км мгла 6/6 600 м
[Cu Sc]
+30.0 +23.8 69 +41 +48 опасность
перегрева
1006.9 947.8
09 20.08 З 3 4000 м мгла 9/6 600 м
[Cu Sc Ac trans]
+31.2 +21.7 57 +40 +42 очень
душно
1004.0 945.4
12 20.08 З 2 4000 м мгла 10/6 600 м
[Cu Sc As op]
+29.4 +22.2 65 +38 +38 очень
душно
1003.5 944.6 +32.6
15 20.08 З 2 4000 м мгла 5/1 600 м
[Sc Ac trans Ci fib]
+27.6 +22.4 73 +36 +36 очень
душно
1005.5 946.1
18 20.08 нст 1 4000 м мгла 9/3 600 м
[Sc Ac trans Ci fib]
+27.2 +22.6 76 +36 +36 очень
душно
1006.0 946.6
21 20.08 нст 1 4000 м мгла 9/4 600 м
[Sc Ac trans Ci fib]
+27.0 +23.6 82 +37 +37 очень
душно
1004.9 945.3
00 21.08 нст 1 4000 м мгла 8/1 600 м
[Sc Ac trans Ci fib]
+25.4 +22.5 84 +33 +33 очень
душно
1005.4 945.6
03 21.08 З 3 4000 м мгла 9/3 450 м
[Sc Ac trans Ci fib]
+27.4 +22.2 73 +36 +38 очень
душно
1006.1 946.7 +25.0 +32.6
06 21.08 СЗ 3 4000 м мгла 9/6 450 м
[Cu Sc Ac trans Ci fib]
+29.2 +22.0 65 +38 +42 очень
душно
1006.2 947.1
09 21.08 З 3 4000 м мгла 9/6 600 м
[Cu Sc Ac trans Ci fib]
+30.0 +21.3 60 +38 +41 очень
душно
1003.8 944.9
12 21.08 СЗ 2 4000 м мгла 10/6 450 м
[Cu Sc As op]
+29.0 +21.1 62 +36 +36 очень
душно
1003.5 944.4 +31.9
15 21.08 З 1 4000 м мгла 6/4 600 м
[Sc Ac trans]
+26.6 +22.5 78 +35 +35 очень
душно
1005.6 946.0
18 21.08 штиль 0 4000 м мгла 8/4 600 м
[Sc Ac trans]
+26.0 +21.9 78 +33 +33 очень
душно
1006.3 946.5
21 21.08 З 2 4000 м мгла 6/4 600 м
[Sc Ac trans]
+25.4 +21.6 80 +33 +33 очень
душно
1005.0 945.2
00 22.08 З 2 4000 м мгла 8/5 600 м
[Sc Ac trans]
+24.8 +21.9 84 +32 +32 очень
душно
1005.2 945.2
03 22.08 З 3 4000 м мгла 8/5 450 м
[Sc diur, vesp Ac trans Ci fib]
+26.2 +21.8 77 +34 +36 очень
душно
1006.0 946.4 +24.0 +31.9
06 22.08 СЗ 3 4000 м мгла 6/5 450 м
[Cu Sc Ci fib]
+30.0 +21.6 61 +38 +47 очень
душно
1005.2 946.2
09 22.08 СЗ 2 4000 м мгла 8/6 600 м
[Cu Sc Ci fib]
+32.2 +21.9 55 +41 +47 опасность
перегрева
1001.6 943.3
12 22.08 СЗ 2 4000 м в посл. час гроза {дождь} 10/6 600 м
[Cb cap As op]
+25.6 +23.9 90 +35 +35 очень
душно
1003.5 943.8 +33.4 4
15 22.08 штиль 0 4000 м мгла 9/6 600 м
[Cu Sc Ac trans]
+25.0 +21.8 82 +32 +32 очень
душно
1004.9 945.0 4
18 22.08 штиль 0 4000 м мгла 9/5 600 м
[Sc Ac trans Ci fib]
+25.0 +22.4 86 +33 +33 очень
душно
1005.4 945.4 4
21 22.08 З 2 4000 м мгла {дождь} 9/6 450 м
[Sc Ci fib]
+23.4 +21.9 91 +32 +32 очень
душно
1004.7 944.6 9
00 23.08 штиль 0 4000 м слаб. морось {дождь} 10/8 300 м
[Frnb As op]
+23.4 +21.6 90 +32 +32 очень
душно
1004.8 944.7 10
03 23.08 СЗ 2 4000 м мгла 10/6 300 м
[Frnb As op]
+24.4 +22.0 86 +31 +32 очень
душно
1006.6 946.6 +22.6 +33.4 10
06 23.08 СЗ 2 4000 м мгла 10/6 300 м
[Frnb As op]
+27.6 +23.0 76 +37 +39 очень
душно
1006.4 947.0
09 23.08 СЗ 2 10 км мгла 8/5 600 м
[Cu Sc Ac trans]
+29.0 +23.0 70 +39 +44 очень
душно
1003.9 944.8
12 23.08 штиль 0 4000 м слаб. морось {дождь} 9/6 450 м
[Cu Sc Ac trans]
+24.6 +24.0 96 +34 +34 очень
душно
1004.5 944.6 +29.9 7
15 23.08 штиль 0 4000 м мгла {дождь} 9/6 600 м
[Sc Ac trans Ci fib]
+24.8 +23.9 95 +34 +34 очень
душно
1005.8 945.8 8
18 23.08 З 2 4000 м мгла {дождь} 9/4 600 м
[Sc Ac As Ci sp]
+25.0 +22.1 84 +32 +32 очень
душно
1006.2 946.2 8
21 23.08 З 3 4000 м мгла 9/5 600 м
[Sc Ac trans Ci fib]
+24.0 +21.3 85 +30 +30 очень
душно
1005.4 945.2 8
00 24.08 З 2 4000 м мгла 6/3 600 м
[Sc Ac trans Ci fib]
+23.2 +21.7 91 +31 +31 очень
душно
1005.4 945.2 8
03 24.08 СЗ 3 4000 м мгла 5/5 300 м
[Frnb]
+25.8 +22.0 80 +33 +36 очень
душно
1006.7 946.9 +22.8 +29.9 8
06 24.08 З 3 10 км мгла 6/6 450 м
[Cu Sc]
+29.6 +22.1 64 +38 +45 очень
душно
1006.4 947.3
09 24.08 З 2 4000 м мгла 9/5 450 м
[Sc Ci fib]
+31.8 +21.1 53 +39 +46 очень
душно
1002.6 944.1
12 24.08 З 2 4000 м мгла 9/5 600 м
[Sc Ac trans Ci fib]
+30.6 +21.3 58 +39 +39 очень
душно
1002.4 943.7 +32.7
15 24.08 нст 1 4000 м мгла 6/4 600 м
[Sc Ci fib]
+27.2 +20.7 68 +34 +34 очень
душно
1004.7 945.3
18 24.08 нст 1 4000 м мгла 9/5 600 м
[Sc Ac trans Ci fib]
+26.6 +21.3 73 +34 +34 очень
душно
1005.5 945.9
21 24.08 З 2 4000 м в посл. час гроза 9/6 600 м
[Sc Ac trans Ci fib]
+23.4 +21.6 90 +32 +32 очень
душно
1005.0 944.9 5
00 25.08 З 2 4000 м мгла {гроза} 9/6 300 м
[Frnb Ac trans Ci fib]
+23.2 +20.5 85 +31 +31 очень
душно
1005.4 945.2 5
03 25.08 З 2 10 км мгла {дождь} 6/4 300 м
[Frnb Ci fib]
+25.2 +20.4 75 +31 +35 очень
душно
1005.8 946.0 +22.6 +32.7 5
06 25.08 З 5 10 км мгла 5/5 450 м
[Cu Sc]
+28.8 +20.6 61 +36 +42 очень
душно
1005.0 945.8
09 25.08 З 3 4000 м мгла 6/5 600 м
[Cu Sc Ci fib]
+30.2 +20.2 55 +37 +43 очень
душно
1002.1 943.4
12 25.08 З 2 4000 м мгла 5/3 600 м
[Sc Ci fib]
+30.0 +19.3 53 +36 +37 очень
душно
1001.3 942.5 +31.0
15 25.08 штиль 0 4000 м мгла 5/3 600 м
[Sc Ci fib]
+26.6 +19.7 66 +32 +32 очень
душно
1004.1 944.6
18 25.08 штиль 0 4000 м мгла 5/4 600 м
[Sc Ac trans]
+26.0 +20.3 71 +32 +32 очень
душно
1005.2 945.4

 

Местоположение метеостанции Хайдарабад (Телингана, Индия): широта 17.45 долгота 78.47 высота над уровнем моря 545 м.

В архиве по умолчанию представлена погода в Хайдарабаде за последнюю неделю. Архивные данные за месяц целиком и за предыдущие месяцы, начиная с января 2011 года, Вы можете получить, выбрав интересующий диапазон дат из раскрывающегося списка и нажав кнопку "Ввод!".


*Определитесь, кто Вы:
робот инопланетянин человек

Внимание! Время в таблицах - всемирное. Для получения местного времени необходимо прибавить поправку, которая равна 5.5 ч.

Смотрите также архив погоды в соседних городах и на ближайших метеорологических станциях:

Погода в Медаке (Телингана, Индия) (70 км)
Погода в Махбубнагаре (Телингана, Индия) (93 км)
Погода в Налгонде (Телингана, Индия) (97 км)
Погода в Бидаре (Карнатака, Индия) (112 км)
Погода в Ханамконде (Телингана, Индия) (133 км)
Погода в Низамабаде (Телингана, Индия) (141 км)
Погода в Рентчайнтале (Андхра-Прадеш, Индия) (152 км)
Погода в Аджере (Махараштра, Индия) (159 км)
Погода в Гулбарге (Карнатака, Индия) (172 км)
Погода в Рамагундэме (Телингана, Индия) (178 км)

Пояснения к столбцам:

Ветер - указаны скорость ветра в м/с - средняя за 10 мин, порывы в срок и между сроками (в фигурных скобках) и направление, откуда дует ветер: С - северный, СВ - северо-восточный, В - восточный, ЮВ - юго-восточный, Ю - южный, ЮЗ - юго-западный, З - западный, СЗ - северо-западный.
Видимость - горизонтальная дальность видимости в метрах или километрах. При видимости от 1 до 10 км при отсутствии осадков обычно наблюдается дымка, при ухудшении видимости до 1 км и менее - туман. В сухую погоду видимость может ухудшаться дымом, пылью или мглою.
Явления - указаны атмосферные явления, наблюдавшиеся в срок или в последний час перед сроком; фигурными скобками обозначены явления, наблюдавшиеся между сроками (за 1-3 часа до срока); квадратными скобками обозначены град или гололедные отложения с указанием их диаметра в мм.
Облачность - указаны через наклонную черту общая и нижняя облачность в баллах и высота нижней границы облаков в метрах; квадратными скобками обозначены формы облаков: Ci - перистые, Cs - перисто-слоистые, Cc - перисто-кучевые, Ac - высококучевые, As - высокослоистые, Sc - слоисто-кучевые, Ns - слоисто-дождевые, Cu - кучевые, Cb - кучево-дождевые. Подробнее классификацию облаков см. в Атласе облаков (PDF).
T - Температура воздуха - температура, измеренная на высоте 2 м над землей.
Td - Температура точки росы - температура, при понижении до которой содержащийся в воздухе водяной пар достигнет насыщения.
f - Относительная влажность воздуха - влажноcть воздуха, измеренная на высоте 2 м над землей.
Te - Эффективная температура - температура, которую ощущает одетый по сезону человек в тени. Характеристика душности погоды. При расчете учитывается влияние влажности воздуха и скорости ветра на теплоощущения человека.
Tes - Эффективная температура на солнце - температура, которую ощущает человек, с поправкой на солнечный нагрев. Характеристика знойности погоды. Зависит от высоты солнца над горизонтом, облачности и скорости ветра. Ночью, в пасмурную погоду, а также при ветре 12 м/с и более поправка равна нулю.
P - Атмосферное давление - приведенное к уровню моря атмосферное давление.
Po - Атмосферное давление - измеренное на уровне метеостанции атмосферное давление.
Tmin - Минимальная температура - минимум температуры воздуха на высоте 2 м над землей.
Tmax - Максимальная температура - максимум температуры воздуха на высоте 2 м над землей.
R - Количество осадков - Количество выпавших осадков за период времени, мм. При наведении курсора мыши на число - период времени, за который выпало указанное количество осадков.
R24 - Количество осадков - Количество выпавших осадков за 24 часа, мм.
S - Снежный покров - Высота снежного покрова, см. При наведении курсора мыши на число - состояние снежного покрова и степень покрытия местности в баллах.